Ostrava, Czech Republic

9:26 AM CEST on October 22, 2017 (GMT +0200)
Mosnov

Weather History for LKMT - December, 2012

Change the Weather History Date:

Friday, December 28, 2012

  Actual Average Record
Temperature  
Mean Temperature 32 °F -  
Max Temperature 41 °F 33 °F - ()
Min Temperature 23 °F 22 °F - ()
Degree Days  
Heating Degree Days 33    
Moisture  
Dew Point 30 °F    
Average Humidity 86    
Maximum Humidity 94    
Minimum Humidity 65    
Precipitation  
Precipitation 0.02 in 0.04 in - ()
Sea Level Pressure  
Sea Level Pressure 30.17 in    
Wind  
Wind Speed 8 mph ()    
Max Wind Speed 18 mph    
Max Gust Speed 29 mph    
Visibility 6.4 miles    
Events Rain    
T = Trace of Precipitation, MM = Missing Value Source: Averaged Metar Reports

Daily Weather History Graph

Daily Weather History Graph

Search for Another Location

Airport or City:

Trip Planner

Search our weather history database for the weather conditions in past years. The results will help you decide how hot, cold, wet, or windy it might be!

Date:

Astronomy

Dec. 28, 2012 Rise Set
Actual Time 7:44 AM CET 3:54 PM CET
Civil Twilight 7:06 AM CET 4:32 PM CET
Nautical Twilight 6:25 AM CET 5:13 PM CET
Astronomical Twilight 5:46 AM CET 5:52 PM CET
Moon 4:19 PM CET (12/28) 7:21 AM CET (12/28)
Length of Visible Light 9h 25m
Length of Day
8h 09m
Full, 100% of the Moon is Illuminated
Dec 28
Full
Jan 5
Last Quarter
Jan 11
New
Jan 19
First Quarter
Jan 27
Full

Hourly Weather History & Observations

Time (CET) Temp. Windchill Dew Point Humidity Pressure Visibility Wind Dir Wind Speed Gust Speed Precip Events Conditions
12:00 AM 41.0 °F - 37.4 °F 87% 29.80 in 6.2 mi Variable 2.3 mph - N/A   Overcast
12:30 AM 39.2 °F 33.6 °F 37.4 °F 93% 29.80 in 6.2 mi WSW 8.1 mph - N/A   Overcast
1:00 AM 39 °F - 38 °F 92% 29.84 in 7 mi SW 11.2 mph - -   Partly Cloudy
1:00 AM 39.2 °F 33.0 °F 37.4 °F 93% 29.80 in 6.2 mi SW 9.2 mph - N/A   Mostly Cloudy
1:30 AM 39.2 °F 34.2 °F 37.4 °F 93% 29.83 in 6.2 mi WSW 6.9 mph - N/A   Scattered Clouds
2:00 AM 39.2 °F 33.0 °F 37.4 °F 93% 29.83 in 6.2 mi WSW 9.2 mph - N/A   Mostly Cloudy
2:30 AM 39.2 °F 33.0 °F 37.4 °F 93% 29.83 in 6.2 mi WSW 9.2 mph - N/A   Mostly Cloudy
3:00 AM 39.2 °F 34.2 °F 37.4 °F 93% 29.83 in 6.2 mi WSW 6.9 mph - N/A Rain Light Rain
3:30 AM 39.2 °F 34.2 °F 37.4 °F 93% 29.83 in 6.2 mi SW 6.9 mph - N/A   Overcast
4:00 AM 39.2 °F 33.6 °F 37.4 °F 93% 29.86 in 6.2 mi SW 8.1 mph - N/A   Partly Cloudy
4:30 AM 39.2 °F 33.0 °F 37.4 °F 93% 29.86 in 6.2 mi SW 9.2 mph - N/A   Scattered Clouds
5:00 AM 39.2 °F 33.6 °F 37.4 °F 93% 29.89 in 6.2 mi SW 8.1 mph - N/A   Mostly Cloudy
5:30 AM 39.2 °F 35.9 °F 37.4 °F 93% 29.89 in 6.2 mi SW 4.6 mph - N/A   Mostly Cloudy
6:00 AM 39.2 °F 35.9 °F 37.4 °F 93% 29.92 in 6.2 mi SW 4.6 mph - N/A   Overcast
6:30 AM 39.2 °F 35.0 °F 37.4 °F 93% 29.95 in 6.2 mi SW 5.8 mph - N/A Rain Light Rain
7:00 AM 39 °F - 38 °F 94% 30.00 in 7 mi SW 4.5 mph - - Rain Light Rain
7:00 AM 39.2 °F 37.0 °F 37.4 °F 93% 29.95 in 6.2 mi SW 3.5 mph - N/A   Overcast
7:30 AM 39.2 °F 37.0 °F 37.4 °F 93% 29.98 in 3.7 mi NW 3.5 mph - N/A Rain Light Rain
8:00 AM 41.0 °F 34.3 °F 37.4 °F 87% 30.01 in 5.0 mi North 11.5 mph - N/A Rain Light Rain
8:30 AM 39.2 °F 31.6 °F 37.4 °F 93% 30.04 in 5.0 mi North 12.7 mph - N/A Rain Light Rain
9:00 AM 39.2 °F 31.2 °F 37.4 °F 93% 30.09 in 6.2 mi North 13.8 mph - N/A   Overcast
9:30 AM 39.2 °F 30.2 °F 35.6 °F 87% 30.12 in 6.2 mi North 17.3 mph 28.8 mph N/A Rain Light Rain
10:00 AM 37.4 °F 27.5 °F 33.8 °F 87% 30.15 in 6.2 mi North 18.4 mph - N/A Rain Light Rain
10:30 AM 35.6 °F 25.5 °F 32.0 °F 87% 30.18 in 6.2 mi North 17.3 mph 28.8 mph N/A   Overcast
11:00 AM 33.8 °F 22.8 °F 28.4 °F 81% 30.21 in 6.2 mi NNW 18.4 mph - N/A   Mostly Cloudy
11:30 AM 33.8 °F 23.5 °F 28.4 °F 81% 30.24 in 6.2 mi North 16.1 mph - N/A   Mostly Cloudy
12:00 PM 32.0 °F 21.2 °F 26.6 °F 80% 30.27 in 6.2 mi North 16.1 mph - N/A   Mostly Cloudy
12:30 PM 32.0 °F 21.2 °F 24.8 °F 75% 30.27 in 6.2 mi North 16.1 mph - N/A   Mostly Cloudy
1:00 PM 33 °F - 26 °F 66% 30.35 in 19 mi North 15.7 mph - -   Partly Cloudy
1:00 PM 32.0 °F 21.6 °F 26.6 °F 80% 30.27 in 6.2 mi North 15.0 mph - N/A   Mostly Cloudy
1:30 PM 33.8 °F 24.8 °F 26.6 °F 75% 30.30 in 6.2 mi North 12.7 mph - N/A   Scattered Clouds
2:00 PM 33.8 °F 24.8 °F 24.8 °F 70% 30.30 in 6.2 mi North 12.7 mph - N/A   Partly Cloudy
2:30 PM 33.8 °F 25.3 °F 23.0 °F 65% 30.33 in - North 11.5 mph - N/A   Clear
3:00 PM 32.0 °F 25.6 °F 23.0 °F 69% 30.33 in - NNE 6.9 mph - N/A   Clear
3:30 PM 32.0 °F 24.8 °F 24.8 °F 75% 30.33 in - North 8.1 mph - N/A   Clear
4:00 PM 30.2 °F 23.4 °F 24.8 °F 80% 30.36 in - North 6.9 mph - N/A   Clear
4:30 PM 30.2 °F 23.4 °F 24.8 °F 80% 30.39 in - North 6.9 mph - N/A   Clear
5:00 PM 28.4 °F 23.3 °F 23.0 °F 80% 30.39 in - NNW 4.6 mph - N/A   Clear
5:30 PM 28.4 °F 24.6 °F 23.0 °F 80% 30.42 in - NNW 3.5 mph - N/A   Clear
6:00 PM 28.4 °F - 23.0 °F 80% 30.42 in - Variable 2.3 mph - N/A   Clear
6:30 PM 28.4 °F 23.3 °F 23.0 °F 80% 30.42 in - NE 4.6 mph - N/A   Clear
7:00 PM 28.4 °F 24.6 °F 23.0 °F 80% 30.45 in - ENE 3.5 mph - N/A   Clear
7:30 PM 26.6 °F 21.2 °F 23.0 °F 86% 30.45 in - ESE 4.6 mph - N/A   Clear
8:00 PM 26.6 °F 21.2 °F 23.0 °F 86% 30.45 in - SE 4.6 mph - N/A   Clear
8:30 PM 26.6 °F 22.6 °F 23.0 °F 86% 30.45 in - SE 3.5 mph - N/A   Clear
9:00 PM 24.8 °F 20.5 °F 23.0 °F 93% 30.45 in - WNW 3.5 mph - N/A   Clear
9:30 PM 24.8 °F 19.1 °F 23.0 °F 93% 30.48 in - WSW 4.6 mph - N/A   Clear
10:00 PM 24.8 °F - 23.0 °F 93% 30.48 in - South 2.3 mph - N/A   Clear
10:30 PM 23.0 °F 17.0 °F 21.2 °F 93% 30.48 in - SW 4.6 mph - N/A   Clear
11:00 PM 24.8 °F 19.1 °F 23.0 °F 93% 30.48 in 5.6 mi SSW 4.6 mph - N/A   Unknown
11:30 PM 23.0 °F 17.0 °F 21.2 °F 93% 30.48 in 5.6 mi SSW 4.6 mph - N/A   Unknown